Location: Devils Tower National Monument
(44.5904°N, 104.7201°W)
Time: 09:45:51
(UTC-07:00)

Envisat - Pass Details

Date: 25 January 2020
Orbit: 764 x 766 km, 98.1° (Epoch: 17 February)

Event Time Altitude Azimuth Distance (km) Brightness Sun altitude
Rises 05:52:30 0° 23° (NNE) 3,239 6.4 -16.5°
Reaches altitude 10° 05:55:07 10° 35° (NE) 2,307 5.8 -16.0°
Maximum altitude 05:59:31 29° 95° (E) 1,380 5.2 -15.2°
Drops below altitude 10° 06:03:52 10° 154° (SSE) 2,292 6.0 -14.5°
Sets 06:06:27 0° 166° (SSE) 3,213 6.6 -14.0°
